Location: Unspecified
(0.0000°N, 0.0000°E)
Time: 17:23:20
(UTC+02:00)

Amateur Radio Satellites - All Passes

Search period start: 23 October 2017 16:53
Search period end: 24 October 2017 16:53
Location: Unspecified, 0.0000°N, 0.0000°E

Satellite Date Start Highest point End Downlink Frequencies (MHz)
Time Altitude Azimuth
SO-50 23 Oct 16:53:32 16:55:33 13° 68° (ENE) 16:57:35 436.795
AO-7 23 Oct 16:53:49 17:02:03 64° 74° (ENE) 17:10:12 .
ITUPSAT 1 23 Oct 17:20:52 17:25:28 52° 282° (WNW) 17:30:06 437.325
BEESAT 23 Oct 17:34:27 17:38:42 33° 283° (WNW) 17:42:58 436.000
ITAMSAT 1 23 Oct 17:42:34 17:47:34 50° 257° (WSW) 17:52:34 435.822/435.867
MOZHAYETS 4 23 Oct 17:59:54 18:01:54 13° 282° (WNW) 18:03:54
JUGNU 23 Oct 18:03:26 18:06:07 13° 190° (S) 18:08:50 437.505
CUBESAT XI-V 23 Oct 18:17:29 18:21:56 50° 282° (WNW) 18:26:27 437.345
SO-50 23 Oct 18:31:31 18:35:45 33° 248° (WSW) 18:40:02 436.795
SRMSAT 23 Oct 18:40:23 18:45:44 33° 199° (SSW) 18:51:08 437.500
DOVE 4 23 Oct 18:46:42 18:50:51 79° 79° (ENE) 18:54:59 437.250
AO-7 23 Oct 18:49:48 18:54:21 16° 252° (WSW) 18:58:55 .
nSIGHT-1 23 Oct 18:53:40 18:56:11 21° 55° (NE) 18:58:43 .
LilacSat-2 23 Oct 18:57:05 18:59:23 15° 79° (E) 19:01:41 437.200
XW-2D 23 Oct 18:59:41 19:02:03 16° 79° (E) 19:04:24 145.860 - 145.880
KKS-1 23 Oct 19:00:07 19:04:33 65° 282° (WNW) 19:08:59 437.445
XW-2B 23 Oct 19:12:30 19:15:37 24° 79° (E) 19:18:42 145.730 - 145.750
PCSat 23 Oct 19:13:28 19:18:29 40° 71° (ENE) 19:23:31 145.827
STARS 23 Oct 19:23:12 19:27:37 80° 102° (ESE) 19:32:01 437.465
ISS 23 Oct 19:34:27 19:37:43 80° 55° (NE) 19:41:00 437.550
XW-2C 23 Oct 19:35:16 19:39:03 59° 79° (E) 19:42:48 145.795 - 145.815
CUTE 1.7 + AOD 2 23 Oct 20:05:25 20:08:38 21° 79° (ENE) 20:11:50 437.475
CUBEBUG 2 23 Oct 20:07:07 20:08:29 11° 77° (ENE) 20:09:50 437.445
SEEDS 23 Oct 20:07:50 20:09:01 11° 79° (ENE) 20:10:13 437.485
KAITUO 1B 23 Oct 20:09:18 20:13:00 54° 259° (W) 20:16:39 145.475/437.950
CUTE-I 23 Oct 20:15:38 20:20:52 60° 257° (WSW) 20:26:04 437.470
XW-2F 23 Oct 20:17:26 20:20:47 29° 259° (W) 20:24:05 145.980 - 146.000
NUDT-PHONESAT 23 Oct 20:17:48 20:21:20 41° 259° (WSW) 20:24:52 437.300
STRAND 1 23 Oct 20:30:31 20:34:56 29° 103° (ESE) 20:39:19 437.568
LilacSat-2 23 Oct 20:30:57 20:33:22 16° 258° (WSW) 20:35:47 437.200
nSIGHT-1 23 Oct 20:31:27 20:32:16 11° 233° (SW) 20:33:04 .
O/OREOS (USA 219) 23 Oct 20:31:37 20:36:08 76° 284° (WNW) 20:40:39 437.305
SRMSAT 23 Oct 20:32:01 20:35:28 15° 192° (SSW) 20:38:55 437.500
XW-2D 23 Oct 20:33:41 20:35:57 15° 258° (WSW) 20:38:12 145.860 - 145.880
UWE-3 23 Oct 20:36:42 20:39:16 15° 78° (ENE) 20:41:50 435.000/436.395/437.385
HO-68 23 Oct 20:48:46 20:55:57 84° 77° (ENE) 21:03:07 435.675
XW-2A 23 Oct 20:57:34 21:00:35 28° 79° (E) 21:03:34 145.665 - 145.685
PCSat 23 Oct 20:59:14 21:01:37 13° 250° (WSW) 21:04:01 145.827
FO-29 23 Oct 20:59:40 21:01:13 11° 104° (ESE) 21:02:46 435.910
AO-73 23 Oct 21:17:25 21:20:50 21° 78° (ENE) 21:24:15 145.935
ZACube-1 23 Oct 21:40:37 21:45:02 53° 78° (ENE) 21:49:29 437.345
CUBEBUG 2 23 Oct 21:40:42 21:44:46 33° 259° (W) 21:48:54 437.445
SEEDS 23 Oct 21:40:53 21:44:26 27° 258° (WSW) 21:47:58 437.485
CUTE 1.7 + AOD 2 23 Oct 21:41:46 21:44:11 15° 258° (WSW) 21:46:36 437.475
JUGNU 23 Oct 21:43:31 21:46:26 14° 169° (S) 21:49:22 437.505
AAUSAT CUBESAT 2 23 Oct 21:53:34 21:57:34 50° 259° (WSW) 22:01:32 437.432
STRAND 1 23 Oct 22:10:39 22:13:49 17° 283° (WNW) 22:17:00 437.568
Oscar 11 23 Oct 22:11:19 22:15:40 75° 79° (E) 22:20:00 .
UWE-3 23 Oct 22:11:39 22:15:24 26° 259° (WSW) 22:19:13 435.000/436.395/437.385
BEESAT 3 23 Oct 22:17:22 22:19:10 13° 68° (ENE) 22:20:57 437.485
SRMSAT 23 Oct 22:25:34 22:25:44 10° 182° (S) 22:25:53 437.500
YUBILEINY 23 Oct 22:26:03 22:34:53 82° 267° (W) 22:43:45 435.215
RS-15 23 Oct 22:32:29 22:39:58 19° 112° (ESE) 22:47:33 29.354- 29.394
FO-29 23 Oct 22:37:57 22:45:43 84° 283° (WNW) 22:53:34 435.910
DELFI C3 23 Oct 22:48:48 22:52:18 31° 79° (ENE) 22:55:46 145.870
AO-73 23 Oct 22:53:43 22:56:46 18° 258° (WSW) 22:59:50 145.935
Max Valier Satellite 23 Oct 22:58:08 23:01:22 28° 79° (E) 23:04:36 145.860
JUGNU 23 Oct 23:31:01 23:36:06 28° 162° (SSE) 23:41:11 437.505
PRISM 23 Oct 23:40:38 23:44:29 37° 102° (ESE) 23:48:21 437.425
UNISAT 6 23 Oct 23:41:51 23:46:12 63° 282° (WNW) 23:50:29 437.425
BEESAT 2 23 Oct 23:44:36 23:48:26 51° 68° (ENE) 23:52:13 435.950
AO-85 23 Oct 23:52:07 23:56:56 44° 69° (ENE) 00:01:58 145.980
BEESAT 3 23 Oct 23:53:41 23:56:26 19° 248° (WSW) 23:59:10 437.485
TIGRISAT 23 Oct 23:55:47 23:59:58 44° 282° (WNW) 00:04:05 435.000
SRMSAT 24 Oct 00:13:48 00:16:06 12° 172° (S) 00:18:24 437.500
EO-88 24 Oct 00:13:48 00:16:44 22° 258° (WSW) 00:19:39 145.990 - 145.960
AIST 2D 24 Oct 00:31:45 00:34:53 33° 101° (E) 00:38:04 435.315
RS-15 24 Oct 00:40:13 00:52:03 73° 290° (WNW) 01:04:19 29.354- 29.394
ESTCUBE 1 24 Oct 00:46:00 00:50:14 40° 78° (ENE) 00:54:25 437.505/2401.250
NO-84 24 Oct 00:49:18 00:53:05 50° 121° (ESE) 00:57:06 435.350 FM
LO-87 24 Oct 00:50:48 00:54:22 86° 83° (E) 00:57:56 145.935 - 145.965
JUGNU 24 Oct 01:19:17 01:25:18 74° 159° (SSE) 01:31:17 437.505
EO-79 24 Oct 01:29:03 01:33:13 69° 101° (E) 01:37:25 145.935-145.965
POLYITAN 1 24 Oct 01:34:50 01:39:02 84° 103° (ESE) 01:43:14 437.675
AO-85 24 Oct 01:35:10 01:37:15 12° 247° (WSW) 01:39:23 145.980
NANOSAT C BR1 24 Oct 01:54:49 01:58:55 56° 282° (WNW) 02:03:01 145.865
QB50P2 24 Oct 01:55:39 01:59:35 40° 282° (WNW) 02:03:32 145.880/145.840
VELOX 1 24 Oct 01:55:49 01:59:51 36° 78° (ENE) 02:03:51 145.980
BUGSAT 1 24 Oct 01:57:27 02:00:25 19° 102° (ESE) 02:03:21 437.445
SRMSAT 24 Oct 02:01:22 02:06:04 23° 163° (SSE) 02:10:44 437.500
DUCHIFAT 1 24 Oct 02:03:27 02:07:29 49° 282° (WNW) 02:11:32 145.980
SPROUT 24 Oct 02:18:01 02:22:13 59° 259° (WSW) 02:26:24 437.525
Oscar 19 24 Oct 02:19:38 02:23:08 19° 103° (ESE) 02:26:39 437.125/150
M-CUBED/EXP-1 PRIME 24 Oct 02:25:49 02:28:00 14° 108° (ESE) 02:30:16 437.505
DX 1 24 Oct 02:50:11 02:54:04 33° 78° (ENE) 02:57:58 434.975-435.025
UKube-1 24 Oct 03:06:18 03:10:06 31° 78° (ENE) 03:13:54 .
JUGNU 24 Oct 03:08:47 03:14:24 41° 340° (NNW) 03:19:59 437.505
Gurwin Techsat 1B 24 Oct 03:19:23 03:24:38 66° 103° (ESE) 03:29:55 435.225
BUGSAT 1 24 Oct 03:33:08 03:35:29 15° 282° (WNW) 03:37:50 437.445
AO-7 24 Oct 03:34:14 03:36:02 11° 108° (ESE) 03:37:50 .
50 SAT 24 Oct 03:45:04 03:47:14 17° 258° (WSW) 03:49:24 437.505
SRMSAT 24 Oct 03:49:36 03:55:29 59° 159° (SSE) 04:01:19 437.500
Oscar 19 24 Oct 03:57:58 04:02:10 26° 282° (WNW) 04:06:24 437.125/150
M-CUBED/EXP-1 PRIME 24 Oct 03:58:37 04:02:03 26° 284° (WNW) 04:05:42 437.505
ITUPSAT 1 24 Oct 04:07:18 04:10:09 16° 77° (ENE) 04:12:59 437.325
BEESAT 24 Oct 04:19:14 04:23:01 23° 77° (ENE) 04:26:48 436.000
MOZHAYETS 4 24 Oct 04:37:12 04:41:41 49° 78° (ENE) 04:46:09
ITAMSAT 1 24 Oct 04:39:00 04:43:19 26° 103° (ESE) 04:47:37 435.822/435.867
UKube-1 24 Oct 04:45:33 04:45:50 10° 257° (WSW) 04:46:07 .
JUGNU 24 Oct 04:59:56 05:03:49 18° 346° (NNW) 05:07:41 437.505
CUBESAT XI-V 24 Oct 05:00:51 05:03:11 14° 78° (ENE) 05:05:29 437.345
SO-50 24 Oct 05:04:51 05:08:19 22° 113° (ESE) 05:11:45 436.795
AO-7 24 Oct 05:19:56 05:28:16 82° 286° (WNW) 05:36:39 .
SRMSAT 24 Oct 05:38:57 05:44:41 50° 339° (NNW) 05:50:24 437.500
ITUPSAT 1 24 Oct 05:43:40 05:47:41 27° 257° (WSW) 05:51:42 437.325
BEESAT 24 Oct 05:57:19 06:00:30 18° 257° (WSW) 06:03:41 436.000
ITAMSAT 1 24 Oct 06:18:52 06:22:29 19° 283° (WNW) 06:26:07 435.822/435.867
nSIGHT-1 24 Oct 06:27:08 06:28:40 13° 126° (SE) 06:30:13 .
CUBESAT XI-V 24 Oct 06:36:17 06:40:16 28° 258° (WSW) 06:44:13 437.345
SO-50 24 Oct 06:45:33 06:48:30 17° 292° (WNW) 06:51:27 436.795
LilacSat-2 24 Oct 06:51:57 06:53:29 12° 102° (ESE) 06:55:00 437.200
JUGNU 24 Oct 06:53:13 06:53:47 10° 355° (N) 06:54:20 437.505
XW-2D 24 Oct 06:53:51 06:55:23 12° 102° (ESE) 06:56:55 145.860 - 145.880
DOVE 4 24 Oct 07:06:05 07:11:15 57° 282° (WNW) 07:16:26 437.250
XW-2B 24 Oct 07:06:18 07:08:57 18° 102° (ESE) 07:11:37 145.730 - 145.750
ISS 24 Oct 07:08:32 07:11:39 44° 126° (SE) 07:14:46 437.550
KKS-1 24 Oct 07:12:45 07:16:56 42° 258° (WSW) 07:21:06 437.445
CUTE-I 24 Oct 07:15:56 07:20:20 26° 103° (ESE) 07:24:42 437.470
XW-2C 24 Oct 07:28:51 07:32:25 44° 102° (ESE) 07:36:02 145.795 - 145.815
SRMSAT 24 Oct 07:29:51 07:34:09 20° 344° (NNW) 07:38:26 437.500
STARS 24 Oct 07:33:57 07:38:18 71° 257° (WSW) 07:42:39 437.465
PCSat 24 Oct 07:49:17 07:54:38 64° 289° (WNW) 07:59:58 145.827
KAITUO 1B 24 Oct 08:01:09 08:04:50 77° 281° (W) 08:08:33 145.475/437.950
nSIGHT-1 24 Oct 08:02:30 08:04:45 18° 306° (NW) 08:06:58 .
NUDT-PHONESAT 24 Oct 08:08:39 08:12:14 59° 280° (W) 08:15:51 437.300
XW-2F 24 Oct 08:10:10 08:13:37 37° 281° (W) 08:17:06 145.980 - 146.000
CUTE 1.7 + AOD 2 24 Oct 08:11:12 08:14:41 25° 102° (ESE) 08:18:12 437.475
SEEDS 24 Oct 08:11:55 08:13:57 13° 102° (ESE) 08:15:59 437.485
CUBEBUG 2 24 Oct 08:18:26 08:20:57 15° 101° (E) 08:23:26 437.445
LilacSat-2 24 Oct 08:24:45 08:27:28 19° 281° (W) 08:30:12 437.200
XW-2D 24 Oct 08:26:37 08:29:17 19° 281° (W) 08:31:57 145.860 - 145.880
HO-68 24 Oct 08:40:21 08:47:29 71° 104° (ESE) 08:54:38 435.675
XW-2A 24 Oct 08:40:57 08:42:43 14° 101° (ESE) 08:44:30 145.665 - 145.685
XW-2B 24 Oct 08:41:18 08:42:52 12° 281° (W) 08:44:26 145.730 - 145.750
JUGNU 24 Oct 08:42:50 08:43:59 11° 6° (N) 08:45:09 437.505
O/OREOS (USA 219) 24 Oct 08:42:52 08:47:10 42° 256° (WSW) 08:51:26 437.305
UWE-3 24 Oct 08:47:27 08:50:24 19° 101° (E) 08:53:21 435.000/436.395/437.385
CUTE-I 24 Oct 08:56:10 09:00:05 21° 283° (WNW) 09:04:01 437.470
STRAND 1 24 Oct 09:02:23 09:07:30 75° 77° (ENE) 09:12:36 437.568
YUBILEINY 24 Oct 09:05:33 09:12:03 24° 93° (E) 09:18:30 435.215
SRMSAT 24 Oct 09:22:38 09:24:09 11° 353° (N) 09:25:40 437.500
AO-73 24 Oct 09:26:45 09:30:11 25° 102° (ESE) 09:33:35 145.935
SEEDS 24 Oct 09:46:02 09:49:20 23° 281° (WNW) 09:52:41 437.485
CUTE 1.7 + AOD 2 24 Oct 09:48:37 09:50:15 12° 281° (WNW) 09:51:52 437.475
ZACube-1 24 Oct 09:50:37 09:54:46 72° 100° (E) 09:58:54 437.345
CUBEBUG 2 24 Oct 09:54:02 09:57:18 21° 282° (WNW) 10:00:31 437.445
AAUSAT CUBESAT 2 24 Oct 09:56:45 10:00:42 45° 281° (WNW) 10:04:42 437.432
BEESAT 3 24 Oct 10:08:27 10:10:23 13° 112° (ESE) 10:12:20 437.485
FO-29 24 Oct 10:13:27 10:18:27 47° 78° (ENE) 10:23:26 435.910
XW-2A 24 Oct 10:13:56 10:15:09 12° 281° (W) 10:16:23 145.665 - 145.685
RS-15 24 Oct 10:17:52 10:22:37 13° 65° (ENE) 10:27:17 29.354- 29.394
Oscar 11 24 Oct 10:19:54 10:24:11 81° 281° (WNW) 10:28:29 .
UWE-3 24 Oct 10:23:57 10:26:36 16° 282° (WNW) 10:29:12 435.000/436.395/437.385
JUGNU 24 Oct 10:29:47 10:33:52 19° 15° (NNE) 10:37:56 437.505
HO-68 24 Oct 10:33:08 10:34:49 11° 286° (WNW) 10:36:30 435.675
TIGRISAT 24 Oct 10:34:29 10:36:18 12° 77° (ENE) 10:38:07 435.000
DELFI C3 24 Oct 10:46:37 10:50:07 30° 102° (ESE) 10:53:38 145.870
Max Valier Satellite 24 Oct 10:49:24 10:52:04 19° 101° (ESE) 10:54:44 145.860
YUBILEINY 24 Oct 11:00:25 11:08:27 43° 273° (W) 11:16:30 435.215
AO-73 24 Oct 11:04:50 11:06:08 11° 282° (WNW) 11:07:25 145.935
BEESAT 2 24 Oct 11:37:11 11:40:59 53° 112° (ESE) 11:44:51 435.950
PRISM 24 Oct 11:43:09 11:46:58 40° 78° (ENE) 11:50:44 437.425
BEESAT 3 24 Oct 11:44:44 11:47:40 20° 292° (WNW) 11:50:37 437.485
UNISAT 6 24 Oct 11:54:48 11:59:05 42° 258° (WSW) 12:03:27 437.425
EO-88 24 Oct 12:02:49 12:06:05 33° 281° (W) 12:09:23 145.990 - 145.960
AO-85 24 Oct 12:06:00 12:10:06 75° 110° (ESE) 12:13:58 145.980
TIGRISAT 24 Oct 12:08:41 12:12:41 31° 259° (WSW) 12:16:44 435.000
JUGNU 24 Oct 12:17:35 12:23:11 46° 21° (NNE) 12:28:47 437.505
AIST 2D 24 Oct 12:18:05 12:20:41 19° 79° (E) 12:23:16 435.315
RS-15 24 Oct 12:23:39 12:34:56 84° 251° (WSW) 12:45:50 29.354- 29.394
Max Valier Satellite 24 Oct 12:24:49 12:25:37 11° 281° (W) 12:26:26 145.860
NO-84 24 Oct 12:33:21 12:36:19 33° 57° (ENE) 12:39:06 435.350 FM
LO-87 24 Oct 12:38:31 12:41:59 49° 101° (E) 12:45:27 145.935 - 145.965
ESTCUBE 1 24 Oct 12:59:38 13:04:03 63° 102° (ESE) 13:08:32 437.505/2401.250
SRMSAT 24 Oct 13:00:58 13:04:40 17° 14° (NNE) 13:08:23 437.500
EO-79 24 Oct 13:34:54 13:39:09 85° 78° (ENE) 13:43:24 145.935-145.965
POLYITAN 1 24 Oct 13:40:51 13:45:07 79° 259° (W) 13:49:23 437.675
BUGSAT 1 24 Oct 14:00:01 14:03:11 21° 78° (ENE) 14:06:22 437.445
NANOSAT C BR1 24 Oct 14:00:23 14:04:26 46° 258° (WSW) 14:08:30 145.865
QB50P2 24 Oct 14:01:54 14:05:43 33° 258° (WSW) 14:09:33 145.880/145.840
JUGNU 24 Oct 14:06:26 14:12:13 63° 201° (SSW) 14:18:02 437.505
VELOX 1 24 Oct 14:06:48 14:11:09 54° 102° (ESE) 14:15:31 145.980
DUCHIFAT 1 24 Oct 14:08:41 14:12:40 41° 258° (WSW) 14:16:40 145.980
Gurwin Techsat 1B 24 Oct 14:21:42 14:23:31 12° 77° (ENE) 14:25:19 435.225
SPROUT 24 Oct 14:25:02 14:29:06 46° 282° (WNW) 14:33:12 437.525
SRMSAT 24 Oct 14:48:47 14:54:17 38° 20° (NNE) 14:59:48 437.500
Oscar 19 24 Oct 14:51:53 14:56:53 48° 77° (ENE) 15:01:50 437.125/150
DX 1 24 Oct 14:59:19 15:03:31 46° 102° (ESE) 15:07:44 434.975-435.025
UKube-1 24 Oct 15:14:15 15:18:19 41° 102° (ESE) 15:22:23 .
50 SAT 24 Oct 15:23:25 15:26:31 40° 282° (WNW) 15:29:37 437.505
BUGSAT 1 24 Oct 15:36:07 15:38:15 14° 258° (WSW) 15:40:25 437.445
AO-7 24 Oct 15:56:40 16:02:25 21° 73° (ENE) 16:08:05 .
JUGNU 24 Oct 15:56:44 16:01:25 24° 197° (SSW) 16:06:08 437.505
Gurwin Techsat 1B 24 Oct 15:58:09 16:03:10 43° 257° (WSW) 16:08:09 435.225
M-CUBED/EXP-1 PRIME 24 Oct 15:58:46 16:01:41 22° 253° (WSW) 16:04:28 437.505
ITUPSAT 1 24 Oct 16:28:10 16:32:17 30° 102° (ESE) 16:36:24 437.325
SRMSAT 24 Oct 16:37:33 16:43:32 79° 201° (SSW) 16:49:33 437.500
BEESAT 24 Oct 16:40:13 16:44:45 45° 103° (ESE) 16:49:16 436.000
